SCP
0 0 1 1 1 1 1 1 1 2 2 2 2 2 2 2 2 1 1 1 1 1 1 1 1 0 0 0 0 0 0 0 0 0 0 0 0 0 0 0 0 0 0
0 0 1 1 1 1 1 1 1 2 2 3 3 3 3 2 2 2 1 1 1 1 1 1 1 0 0 0 0 0 0 0 0 0 0 0 0 0 0 0 0 0 0
0 0 0 1 1 1 1 1 1 2 2 3 3 3 3 3 2 2 2 1 1 1 1 1 1 1 0 0 0 0 0 0 0 0 0 0 0 0 0 0 0 0 0
0 0 0 0 1 1 1 1 1 2 2 3 3 4 4 3 2 2 2 1 1 1 1 1 1 0 0 0 0 0 0 0 0 0 0 0 0 0 0 0 0 0 0
0 0 0 0 0 0 1 1 1 1 2 2 3 3 3 3 2 2 1 1 1 1 1 1 1 1 0 0 0 0 0 0 0 0 0 0 0 0 0 0 0 0 0
0 0 0 0 0 0 0 1 1 1 2 2 2 2 2 2 2 1 1 1 1 0 1 1 1 1 0 0 0 0 0 0 0 0 0 0 0 0 0 0 0 0 0
0 0 0 0 0 0 0 0 1 1 1 1 1 1 1 1 1 1 1 0 0 0 0 0 0 0 0 0 0 0 0 0 0 0 0 0 0 0 0 0 0 0 0
0 0 0 0 0 0 0 0 0 0 0 0 1 1 1 1 1 0 0 0 0 0 0 0 0 0 0 0 0 0 0 0 0 0 0 0 0 0 0 0 0 0 0
0 0 0 0 0 0 0 0 0 0 0 0 0 0 0 0 0 0 0 0 0 0 0 0 0 0 0 0 0 0 0 0 0 0 0 0 0 0 0 0 0 0 0
0 0 0 0 0 0 0 0 0 0 0 0 0 0 0 0 0 0 0 0 0 0 0 0 0 0 0 0 0 0 0 0 0 0 0 0 0 0 0 0 0 0 0
0 0 0 0 0 0 0 0 0 0 0 0 0 0 0 0 0 0 0 0 0 0 0 0 0 0 0 0 0 0 0 0 0 0 0 0 0 0 0 0 0 0 0
0 0 0 0 0 0 0 0 0 0 0 0 0 0 0 0 0 0 0 0 0 0 0 0 0 0 0 0 0 0 0 0 0 0 0 0 0 0 0 0 0 0 0
0 0 0 0 0 0 0 0 0 0 0 0 0 0 0 0 0 0 0 0 0 0 0 0 0 0 0 0 0 0 0 0 0 0 0 0 0 0 0 0 0 0 0
0 0 0 0 0 0 0 0 0 0 0 0 0 0 0 0 0 0 0 0 0 0 0 0 0 0 0 0 0 0 0 0 0 0 0 0 0 0 0 0 0 0 0
0 0 0 0 0 0 0 0 0 0 0 0 0 0 0 0 0 0 0 0 0 0 0 0 0 0 0 0 0 0 0 0 0 0 0 0 0 0 0 0 0 0 0
0 0 0 0 0 0 0 0 0 0 0 0 0 0 0 0 0 0 0 0 0 0 0 0 0 0 0 0 0 0 0 0 0 0 0 0 0 0 0 0 0 0 0
0 0 0 0 0 0 0 0 0 0 0 0 0 0 0 0 0 0 0 0 0 0 0 0 0 0 0 0 0 0 0 0 0 0 0 0 0 0 0 0 0 0 0
0 0 0 0 0 0 0 0 0 0 0 0 0 0 0 0 0 0 0 0 0 0 0 0 0 0 0 0 0 0 0 0 0 0 0 0 0 0 0 0 0 0 0
0 0 0 0 0 0 0 0 0 0 0 0 0 0 0 0 0 0 0 0 0 0 0 0 0 0 0 0 0 0 0 0 0 0 0 0 0 0 0 0 0 0 0
0 0 0 0 0 0 0 0 0 0 0 0 0 0 0 0 0 0 0 0 0 0 0 0 0 0 0 0 0 0 0 0 0 0 0 0 0 0 0 0 0 0 0
0 0 0 0 0 0 0 0 0 0 0 0 0 0 0 0 0 0 0 0 0 0 0 0 0 0 0 0 0 0 0 0 0 0 0 0 0 0 0 0 0 0 0
0 0 0 0 0 0 0 0 0 0 0 0 0 0 0 0 0 0 0 0 0 0 0 0 0 0 0 0 0 0 0 0 0 0 0 0 0 0 0 0 0 0 0
0 0 0 0 0 0 0 0 0 0 0 0 0 0 0 0 0 0 0 0 0 0 0 0 0 0 0 0 0 0 0 0 0 0 0 0 0 0 0 0 0 0 0
0 0 0 0 0 0 0 0 0 0 0 0 0 0 0 0 0 0 0 0 0 0 0 0 0 0 0 0 0 0 0 0 0 0 0 0 0 0 0 0 0 0 0
0 0 0 0 0 0 0 0 0 0 0 0 0 0 0 0 0 0 0 0 0 0 0 0 0 0 0 0 0 0 0 0 0 0 0 0 0 0 0 0 0 0 0
0 0 0 0 0 0 0 0 0 0 0 0 0 0 0 0 0 0 0 0 0 0 0 0 0 0 0 0 0 0 0 0 0 0 0 0 0 0 0 0 0 0 0
Wind_Speed
9 9 9 9 9 8 8 7 3 5 5 5 5 5 4 3 3 3 4 4 1 2 4 3 2 2 2 1 1 0 1 0 1 1 2 2 2 3 2 2 1 3 6
10 9 10 10 11 10 9 9 6 3 5 5 6 4 5 4 4 3 4 4 2 1 2 3 2 2 1 1 1 1 0 1 1 1 1 2 3 3 2 2 2 2 3
10 10 10 10 10 11 10 9 9 6 4 5 5 5 4 4 3 3 3 4 3 3 2 2 2 2 3 2 3 3 3 3 2 2 3 3 3 2 3 3 3 3 2
10 10 10 10 11 11 11 10 9 8 5 3 6 7 6 5 5 4 4 4 3 3 3 2 0 2 2 3 4 5 4 4 4 3 3 3 3 2 2 3 2 2 3
12 11 11 10 11 12 11 10 9 7 6 2 4 6 5 4 4 4 6 5 4 4 2 1 1 2 2 4 5 4 4 4 5 4 3 3 2 3 2 2 2 2 1
14 13 12 10 10 10 10 10 8 7 7 6 3 4 7 7 6 5 5 4 3 3 2 0 1 3 3 4 4 4 5 5 5 4 3 3 3 3 3 3 3 3 3
13 13 12 11 9 10 9 9 9 8 8 8 7 5 7 7 6 5 4 4 3 2 1 2 2 2 3 3 2 3 3 5 5 4 4 3 3 2 2 2 3 3 3
13 12 11 10 9 9 9 8 8 8 8 7 7 6 7 5 4 4 3 2 2 2 2 3 2 3 3 2 1 1 2 2 3 4 4 3 3 3 3 3 2 2 3
13 12 11 10 9 9 9 8 7 7 7 7 7 7 7 6 5 4 3 1 2 3 2 2 3 4 3 2 1 1 2 1 1 1 1 2 2 2 3 3 3 3 3
13 12 11 10 9 8 7 8 8 7 7 6 5 5 5 4 3 3 2 1 1 1 2 3 4 4 4 3 2 1 0 0 1 1 2 2 2 2 2 2 2 3 4
13 12 11 10 9 8 8 8 8 8 7 6 5 5 4 3 2 1 1 0 1 2 3 4 4 3 4 4 4 2 2 1 2 2 3 3 3 2 2 2 3 3 3
13 12 12 11 10 10 9 9 8 8 7 6 5 5 4 3 2 1 1 2 3 3 4 4 3 2 2 2 4 4 3 3 2 2 2 3 2 3 3 2 3 3 4
12 11 11 11 10 9 9 8 8 7 7 6 6 5 5 5 4 3 3 3 3 4 3 2 2 2 2 2 2 2 3 3 3 3 3 2 1 1 2 3 3 3 3
9 9 9 8 8 8 8 8 8 7 7 7 7 7 6 5 5 5 5 4 4 4 4 2 1 0 1 1 0 1 1 2 2 1 1 1 2 2 1 0 1 1 1
9 8 7 6 6 6 6 6 5 5 5 6 6 6 5 4 5 5 6 6 6 7 6 6 5 5 3 5 6 5 3 1 1 0 3 5 5 5 3 2 2 2 1
9 7 6 6 6 6 6 5 5 4 5 6 6 5 6 6 7 7 7 6 7 7 8 8 7 7 7 9 9 6 5 4 2 1 2 4 5 5 4 3 2 1 1
9 8 7 6 5 5 5 5 6 6 6 7 7 7 7 7 7 8 7 7 7 7 7 7 6 6 7 10 9 8 5 5 3 2 0 1 4 2 2 3 4 3 3
8 8 7 6 6 6 5 5 6 7 7 7 7 7 7 7 7 7 7 7 6 6 6 6 6 5 7 11 9 8 5 4 4 3 2 2 3 4 4 1 1 1 4
7 6 7 6 6 7 6 7 7 7 7 7 7 7 7 7 7 7 7 6 5 5 5 5 6 6 6 11 10 8 4 3 3 3 4 5 4 5 6 4 3 3 1
6 6 6 7 6 6 6 7 7 7 7 7 6 6 5 6 6 6 5 4 4 4 4 4 5 5 5 9 11 9 3 3 2 3 4 8 6 6 6 4 4 4 3
5 6 5 4 5 5 5 6 6 6 5 5 5 5 5 5 5 5 5 5 4 4 4 4 4 4 5 8 11 11 4 4 3 3 3 4 6 7 7 5 4 3 4
5 5 4 4 3 4 4 5 4 3 3 3 4 4 5 6 6 5 5 5 5 5 5 5 5 4 5 7 9 11 9 7 4 4 3 3 6 6 6 5 5 6 5
4 4 4 4 3 3 3 3 2 1 2 3 3 3 5 5 6 6 6 6 6 5 5 5 5 5 6 8 12 10 10 10 5 4 5 5 6 5 4 6 7 6 4
4 4 4 5 4 2 2 2 2 2 1 2 3 4 5 5 6 5 5 6 6 6 6 6 5 5 6 8 8 7 6 6 5 3 4 6 7 6 6 5 5 4 4
4 4 4 4 5 3 2 3 3 4 2 3 4 4 4 4 5 5 5 5 5 5 4 4 5 5 6 7 10 7 6 5 5 4 4 5 5 6 6 5 6 5 5
5 5 4 4 5 4 3 3 2 4 3 4 4 3 2 3 4 4 4 8 7 7 9 9 6 5 6 8 11 12 12 13 12 7 6 6 6 6 6 6 6 6 6
Wind_Direction
18 27 6 355 344 335 325 310 247 191 189 172 177 170 168 158 140 135 135 135 103 85 111 124 120 86 105 129 278 337 153 248 291 330 346 327 267 251 182 209 229 205 152
7 16 8 359 352 342 336 325 306 248 201 183 174 176 162 154 146 136 131 129 135 106 108 122 123 117 119 174 268 299 138 260 252 165 126 322 316 301 243 202 205 254 155
5 5 3 360 352 346 339 325 316 294 246 196 171 162 149 142 136 133 115 96 90 73 72 113 143 166 167 199 233 239 213 216 248 213 168 183 226 272 289 240 205 207 181
8 5 2 358 352 347 339 329 321 311 290 211 174 168 162 163 162 148 126 105 86 71 56 28 311 202 184 199 222 228 218 207 224 238 223 212 189 177 276 299 270 219 203
2 360 1 0 356 353 347 340 333 334 336 304 180 165 152 150 137 129 125 119 105 83 63 5 296 266 230 215 217 232 220 214 219 222 220 228 238 222 200 251 286 298 264
355 357 0 1 360 358 356 354 358 12 15 21 60 122 132 127 125 123 123 112 106 95 84 318 279 271 258 244 222 215 221 220 223 222 215 206 203 212 210 219 236 251 264
355 355 356 359 3 4 5 8 18 27 29 36 44 73 111 122 127 127 127 124 116 109 158 214 224 252 261 259 234 220 222 218 220 221 219 218 223 224 214 213 232 239 255
353 358 2 3 8 11 12 19 26 32 37 49 54 66 87 95 103 108 112 118 134 170 203 214 219 230 243 261 248 245 241 229 220 222 219 211 225 220 212 205 208 236 250
355 3 7 7 11 17 16 22 34 43 47 55 60 67 77 86 97 104 108 128 184 182 187 211 216 215 213 227 229 226 252 250 276 267 257 222 221 211 213 211 193 189 218
1 7 9 10 15 17 21 29 40 46 49 57 64 73 75 85 98 102 112 166 211 178 197 229 224 202 189 189 172 193 265 281 247 199 259 257 244 233 216 218 213 197 198
11 13 14 17 20 24 30 33 35 38 42 48 54 58 59 59 62 85 116 244 253 247 241 237 227 199 179 178 167 190 182 207 259 240 222 229 229 223 219 217 219 216 202
18 19 19 20 24 28 30 33 30 31 30 32 36 40 38 33 21 5 302 270 261 261 261 249 237 162 159 181 168 184 177 188 217 238 242 244 220 214 219 218 226 223 212
21 20 19 20 23 25 28 30 27 26 23 22 24 28 25 16 5 349 329 305 290 284 272 257 241 178 174 160 165 189 193 187 199 210 217 226 195 210 208 218 229 231 232
24 25 20 18 22 26 30 30 27 26 30 30 31 31 25 10 353 345 333 332 334 327 325 329 341 277 171 145 214 240 199 182 194 201 192 92 75 60 28 284 234 236 239
24 26 22 18 23 26 28 31 31 29 33 39 39 31 23 19 11 6 4 4 1 359 1 4 8 17 26 35 25 2 355 359 342 348 90 93 99 90 68 56 36 27 17
26 28 27 23 27 31 32 30 34 37 40 39 35 27 28 28 24 23 21 9 11 13 11 10 12 15 29 28 26 11 348 340 337 7 112 145 151 139 141 145 131 91 49
22 18 25 27 29 40 50 45 40 42 41 43 42 34 32 30 29 28 22 15 21 21 15 12 11 23 32 20 11 2 338 319 316 327 12 90 101 133 171 196 209 209 196
16 11 20 34 25 27 52 64 53 46 41 39 45 41 34 28 27 29 28 24 23 23 21 16 12 24 29 18 5 350 317 305 311 329 6 61 79 47 34 16 283 196 184
8 10 17 30 31 27 37 53 54 46 39 34 39 41 35 28 27 28 27 23 24 26 25 18 17 24 24 16 7 351 315 318 332 18 37 50 69 45 30 9 355 13 63
9 11 21 24 25 29 36 44 50 47 39 30 30 36 38 34 28 26 27 24 26 25 24 26 25 27 23 18 17 5 343 342 5 53 65 61 61 46 28 13 21 32 11
18 10 15 23 19 23 42 46 43 46 44 32 28 32 30 39 39 22 22 24 21 24 25 24 27 31 29 18 20 17 10 360 21 49 60 54 49 47 35 34 45 28 344
26 9 359 358 14 27 38 57 46 43 55 41 31 45 45 34 32 27 25 22 18 26 24 20 22 19 26 23 13 18 25 21 41 50 54 61 48 44 41 43 31 15 6
23 357 342 346 6 40 39 46 41 14 77 66 37 54 67 60 38 31 29 22 21 25 23 17 19 20 19 15 11 18 27 30 45 60 64 58 44 37 46 46 34 25 27
4 346 356 4 349 4 49 42 10 321 134 109 75 69 65 67 59 39 36 38 25 18 16 17 17 22 26 15 4 5 15 24 39 52 61 53 46 46 45 40 34 42 43
351 4 17 346 321 338 60 67 12 333 5 87 81 81 82 86 81 68 42 41 52 35 18 9 21 21 23 6 7 18 17 13 25 38 50 45 41 41 37 36 34 34 32
360 5 358 334 331 356 34 74 41 341 17 63 62 63 78 95 116 116 91 50 55 52 52 45 47 58 33 14 20 23 27 32 40 52 52 48 45 43 39 37 33 31 27